User: anonymous   Login
Location: Fort Wayne
(41.1310°N, 85.1290°W)
Time: 18:11:47
(UTC-04:00)
Language:

BREEZE-M DEB (TANK) - Orbit

View from above orbital plane
View from above orbital plane
View from above satellite
View from above satellite

Ground track
Ground track

The orbit data is extracted from the following two-line orbital elements,

1 27821U 03024B   16270.59260342  .00003421  00000-0  43325-3 0  9996
2 27821  49.5646 151.0326 4943552 188.8733 157.5057  5.73885417265285
Epoch (UTC): 26 September 2016 14:13:20
Eccentricity: 0.4943552
inclination: 49.5646°
perigee height: 285 km
apogee height: 13314 km
right ascension of ascending node: 151.0326°
argument of perigee: 188.8733°
revolutions per day: 5.73885417
mean anomaly at epoch: 157.5057°
orbit number at epoch: 26528

The dashed part of the orbit path shows where the satellite is in the earth's shadow,  

DLR